Weather in Maksimovka

Russia / Omsk Oblast     55°38′41″N   72°42′35″E
temp.,
°C
wind,
m/s
gust,
m/s
humid.,
%
clouds,
%
prec.,
mm/h
press.,
hPa
HPBL,
m
13 april, tue
tue1300:00+2nw4999100 0.0 1034195
03:00+1n469893 0.0 1036172
06:00−3nw34967 0.0 103751
09:00+1nw37970 0.0 1039164
12:00+3wnw3810098 0.0 1039262
15:00+6wnw49895 0.0 1039644
18:00+6w377796 0.0 1038146
21:00+3w348257 0.0 103842
14 april, wed
wed1400:00+2wsw488416 0.0 1037107
03:00+1wsw410885 0.0 1035143
06:00+1wsw51390100 0.0 1034224
09:00+4wsw61583100 0.0 1033395
12:00+8wsw7157863 0.0 1030537
15:00+11w71377100 0.0 1028779
18:00+12w5107842 0.0 1027324
21:00+8w45876 0.0 102759
15 april, thu
thu1500:00+8w3591100 0.0 102770
03:00+8wsw339378 0.0 102646
06:00+6wsw34955 0.0 102664
09:00+10wsw48895 0.0 1025214
12:00+15w69725 0.1 1024989
15:00+17wnw68505 0.1 10221550
18:00+16wnw47555 0.1 1020684
21:00+12wsw34745 0.0 102048
16 april, fri
fri1600:00+10wsw4108866 0.0 1018175
03:00+9wsw4119058 0.0 1017190
06:00+8wsw4109070 0.0 1016160
09:00+10wsw4878100 0.0 1015268
12:00+14wsw5662100 0.0 1014538
15:00+17w4552100 0.0 10131320
18:00+16wnw345555 0.1 10111267
21:00+8ne61083100 0.1 1012391
17 april, sat
sat1700:00+5ene61087100 0.1 1011436
03:00+4ene6989100 0.0 1010452
06:00+3ene61091100 0.0 1008486
09:00+1ene71088100 0.0 1008496
12:000ne7887100 0.1 1008605
15:00−1ne81189100 0.3 1008611
18:00−2ne71294100 1.8 1009631
21:00−3ne81395100 2.4 1009726